STARLINK-1272 (45386 NORAD) Tracking and Keplerian Element Data

This shows tracking and keplerian element data for the satellite.

Feedback or suggestion? Click here.




ElementValue
Catalog45386
NameSTARLINK-1272
Epoch Orbit1175
Epoch Day149.33334491
Epoch Year2020
RAAN267.8488
Inclination53.0002
Eccentricity0.0001247
Argument of Perigee261.5141
Mean Anonmoly296.0786
Mean Motion15.49850663
Decay Rate0.02764005
L11 45386U 20019AC 20149.33334491 .02764005 00000-0 42605-1 0 9996
L22 45386 53.0002 267.8488 0001247 261.5141 296.0786 15.49850663 11754

Live tracking and technical data element details for STARLINK-1272 (NORAD 45386). STARLINK-1272 can be tracked NOW for your location showing map with azimuth and elevation plus other details from your city location.

Track the satellite on the map from your city or location and see movement details for azimuth, elevation, latitude, longitude, range, height, and movement on the map or in text.







IsCatalogInMostPopularTable: catalog: 45386, numindb: 13
Update: records affected: 1



GetName: 45386 STARLINK-1272

Hit Count: updated at: Sat, 30 May 2020 15:42:03 GMT